• In Netherlands
  • List of Countries
  • For 7 days
  • Water Temperature
  • Satellite Maps
  • Weather Map
  • Weather Widgets
  • user-avatar
    Login

    Hourly Weather Yeghegnadzor

    Today, 1 March, Wednesday

    Time Temperature Precipitation Wind Pressure Humidity
    00:00 -3°C° 0 mm 1 mps 653 mmHg 91%
    01:00 -4°C° 0 mm 1 mps 653 mmHg 89%
    02:00 -4°C° 0 mm 1 mps 653 mmHg 88%
    03:00 -4°C° 0 mm 1 mps 653 mmHg 87%
    04:00 -6°C° 0 mm 2 mps 653 mmHg 87%
    05:00 -5°C° 0 mm 2 mps 653 mmHg 86%
    06:00 -5°C° 0 mm 2 mps 654 mmHg 85%
    07:00 -2°C° 0 mm 2 mps 654 mmHg 89%
    08:00 +2°C° 0 mm 1 mps 655 mmHg 92%
    09:00 +5°C° 0 mm 1 mps 656 mmHg 95%
    10:00 +6°C° 0 mm 1 mps 656 mmHg 96%
    11:00 +6°C° 0 mm 1 mps 656 mmHg 96%
    12:00 +7°C° 0 mm 1 mps 655 mmHg 97%
    13:00 +7°C° 0 mm 1 mps 655 mmHg 97%
    14:00 +7°C° 0 mm 1 mps 655 mmHg 97%
    15:00 +7°C° 0 mm 1 mps 654 mmHg 98%
    16:00 +5°C° 0 mm 1 mps 654 mmHg 97%
    17:00 +4°C° 0 mm 1 mps 653 mmHg 96%
    18:00 +2°C° 0 mm 1 mps 653 mmHg 95%
    19:00 +1°C° 0 mm 1 mps 652 mmHg 92%
    20:00 +1°C° 0 mm 1 mps 652 mmHg 89%
    21:00 0°C° 0 mm 1 mps 652 mmHg 86%
    22:00 0°C° 0 mm 1 mps 652 mmHg 83%
    23:00 0°C° 0 mm 1 mps 652 mmHg 81%

    Tomorrow, 2 March, Thursday

    Time Temperature Precipitation Wind Pressure Humidity
    00:00 0°C° 0 mm 1 mps 652 mmHg 79%
    01:00 0°C° 0 mm 1 mps 651 mmHg 79%
    02:00 0°C° 0 mm 1 mps 651 mmHg 79%
    03:00 0°C° 0 mm 1 mps 651 mmHg 79%
    04:00 0°C° 0 mm 1 mps 651 mmHg 79%
    05:00 0°C° 0 mm 1 mps 651 mmHg 79%
    06:00 0°C° 0 mm 1 mps 651 mmHg 80%
    07:00 +2°C° 0 mm 1 mps 651 mmHg 84%
    08:00 +4°C° 0 mm 1 mps 652 mmHg 89%
    09:00 +5°C° 0 mm 0 mps 652 mmHg 94%
    10:00 +6°C° 0 mm 0 mps 652 mmHg 93%
    11:00 +8°C° 0 mm 1 mps 652 mmHg 91%
    12:00 +8°C° 0 mm 1 mps 652 mmHg 90%
    13:00 +8°C° 0 mm 1 mps 651 mmHg 91%
    14:00 +7°C° 0 mm 0 mps 651 mmHg 92%
    15:00 +7°C° 0 mm 0 mps 650 mmHg 92%
    16:00 +5°C° 0 mm 0 mps 650 mmHg 92%
    17:00 +4°C° 0 mm 0 mps 650 mmHg 92%
    18:00 +2°C° 0 mm 0 mps 649 mmHg 92%
    19:00 +2°C° 0.1 mm 0 mps 649 mmHg 90%
    20:00 +2°C° 0.1 mm 0 mps 650 mmHg 89%
    21:00 +2°C° 0.1 mm 0 mps 650 mmHg 87%
    22:00 +2°C° 0.1 mm 0 mps 650 mmHg 87%
    23:00 +2°C° 0.1 mm 0 mps 650 mmHg 87%

    Day after tomorrow, 3 March, Friday

    Time Temperature Precipitation Wind Pressure Humidity
    00:00 +2°C° 0.1 mm 0 mps 650 mmHg 87%
    01:00 +1°C° 0.1 mm 0 mps 650 mmHg 87%
    02:00 +1°C° 0.1 mm 0 mps 649 mmHg 88%
    03:00 +1°C° 0.1 mm 0 mps 649 mmHg 88%
    04:00 +1°C° 0 mm 0 mps 649 mmHg 88%
    05:00 0°C° 0 mm 0 mps 649 mmHg 88%
    06:00 0°C° 0 mm 0 mps 649 mmHg 88%
    07:00 +1°C° 0 mm 0 mps 650 mmHg 87%
    08:00 +3°C° 0 mm 0 mps 650 mmHg 87%
    09:00 +4°C° 0 mm 0 mps 651 mmHg 86%
    10:00 +5°C° 0 mm 0 mps 651 mmHg 84%
    11:00 +7°C° 0 mm 1 mps 650 mmHg 83%
    12:00 +8°C° 0 mm 1 mps 650 mmHg 82%
    13:00 +8°C° 0.1 mm 1 mps 650 mmHg 83%
    14:00 +8°C° 0.1 mm 1 mps 650 mmHg 85%
    15:00 +8°C° 0.1 mm 1 mps 649 mmHg 86%
    16:00 +5°C° 0.1 mm 0 mps 649 mmHg 89%
    17:00 +4°C° 0.1 mm 0 mps 649 mmHg 92%
    18:00 +3°C° 0.1 mm 0 mps 649 mmHg 94%
    19:00 +2°C° 0.1 mm 0 mps 649 mmHg 94%
    20:00 +2°C° 0.1 mm 0 mps 649 mmHg 93%
    21:00 +2°C° 0.1 mm 0 mps 649 mmHg 92%
    22:00 +1°C° 0 mm 0 mps 649 mmHg 91%
    23:00 +1°C° 0 mm 0 mps 649 mmHg 90%

    4 March, Saturday

    Time Temperature Precipitation Wind Pressure Humidity
    00:00 +1°C° 0 mm 0 mps 649 mmHg 90%
    01:00 0°C° 0 mm 0 mps 648 mmHg 89%
    02:00 -1°C° 0 mm 0 mps 648 mmHg 89%
    03:00 -2°C° 0 mm 0 mps 647 mmHg 89%
    04:00 -3°C° 0 mm 0 mps 647 mmHg 89%
    05:00 -3°C° 0 mm 0 mps 647 mmHg 89%
    06:00 -4°C° 0 mm 0 mps 647 mmHg 90%
    07:00 -1°C° 0 mm 0 mps 648 mmHg 87%
    08:00 +2°C° 0 mm 0 mps 649 mmHg 84%
    09:00 +5°C° 0 mm 0 mps 651 mmHg 81%
    10:00 +6°C° 0 mm 0 mps 651 mmHg 80%
    11:00 +7°C° 0 mm 1 mps 651 mmHg 79%
    12:00 +8°C° 0 mm 1 mps 651 mmHg 78%
    13:00 +8°C° 0.1 mm 1 mps 650 mmHg 80%
    14:00 +8°C° 0.1 mm 1 mps 650 mmHg 82%
    15:00 +8°C° 0.1 mm 1 mps 650 mmHg 83%
    16:00 +7°C° 0.1 mm 1 mps 650 mmHg 87%
    17:00 +6°C° 0.1 mm 1 mps 650 mmHg 91%
    18:00 +4°C° 0.1 mm 0 mps 650 mmHg 95%
    19:00 +3°C° 0.3 mm 0 mps 650 mmHg 95%
    20:00 +3°C° 0.3 mm 0 mps 651 mmHg 95%
    21:00 +3°C° 0.3 mm 0 mps 651 mmHg 95%
    22:00 +3°C° 0.6 mm 0 mps 651 mmHg 95%
    23:00 +3°C° 0.6 mm 0 mps 651 mmHg 95%

    5 March, Sunday

    Time Temperature Precipitation Wind Pressure Humidity
    00:00 +2°C° 0.6 mm 0 mps 651 mmHg 95%
    01:00 +2°C° 0.7 mm 0 mps 652 mmHg 95%
    02:00 +2°C° 0.7 mm 0 mps 652 mmHg 95%
    03:00 +2°C° 0.7 mm 0 mps 652 mmHg 95%
    04:00 +2°C° 0.6 mm 0 mps 652 mmHg 95%
    05:00 +3°C° 0.6 mm 1 mps 653 mmHg 95%
    06:00 +3°C° 0.6 mm 1 mps 653 mmHg 95%
    07:00 +3°C° 0.7 mm 1 mps 654 mmHg 93%
    08:00 +3°C° 0.7 mm 1 mps 654 mmHg 91%
    09:00 +4°C° 0.7 mm 1 mps 655 mmHg 89%
    10:00 +4°C° 0.6 mm 1 mps 655 mmHg 88%
    11:00 +5°C° 0.6 mm 1 mps 655 mmHg 86%
    12:00 +5°C° 0.6 mm 1 mps 655 mmHg 85%
    13:00 +5°C° 0.5 mm 1 mps 655 mmHg 84%
    14:00 +5°C° 0.5 mm 1 mps 655 mmHg 84%
    15:00 +6°C° 0.5 mm 1 mps 655 mmHg 84%
    16:00 +5°C° 0.3 mm 1 mps 655 mmHg 86%
    17:00 +4°C° 0.3 mm 1 mps 655 mmHg 89%
    18:00 +2°C° 0.3 mm 0 mps 655 mmHg 91%
    19:00 +1°C° 0.1 mm 0 mps 655 mmHg 91%
    20:00 +1°C° 0.1 mm 0 mps 655 mmHg 91%
    21:00 +1°C° 0.1 mm 1 mps 656 mmHg 91%
    22:00 0°C° 0 mm 1 mps 655 mmHg 90%
    23:00 0°C° 0 mm 1 mps 655 mmHg 90%

    6 March, Monday

    Time Temperature Precipitation Wind Pressure Humidity
    00:00 -1°C° 0 mm 1 mps 655 mmHg 89%
    01:00 -3°C° 0 mm 1 mps 654 mmHg 89%
    02:00 -4°C° 0 mm 1 mps 654 mmHg 89%
    03:00 -6°C° 0 mm 0 mps 653 mmHg 88%
    04:00 -7°C° 0 mm 0 mps 653 mmHg 88%
    05:00 -7°C° 0 mm 0 mps 653 mmHg 88%
    06:00 -7°C° 0 mm 0 mps 653 mmHg 88%
    07:00 -3°C° 0 mm 0 mps 654 mmHg 85%
    08:00 0°C° 0 mm 0 mps 656 mmHg 82%
    09:00 +4°C° 0 mm 0 mps 657 mmHg 79%
    10:00 +5°C° 0 mm 0 mps 657 mmHg 79%
    11:00 +6°C° 0 mm 0 mps 657 mmHg 79%
    12:00 +8°C° 0 mm 1 mps 656 mmHg 79%
    13:00 +8°C° 0 mm 1 mps 656 mmHg 80%
    14:00 +8°C° 0 mm 1 mps 655 mmHg 81%
    15:00 +8°C° 0 mm 1 mps 655 mmHg 81%
    16:00 +5°C° 0 mm 0 mps 654 mmHg 85%
    17:00 +3°C° 0 mm 0 mps 654 mmHg 89%
    18:00 +1°C° 0 mm 0 mps 653 mmHg 92%
    19:00 +1°C° 0 mm 0 mps 653 mmHg 93%
    20:00 0°C° 0 mm 0 mps 653 mmHg 93%
    21:00 -1°C° 0 mm 0 mps 653 mmHg 93%
    22:00 -2°C° 0 mm 0 mps 652 mmHg 93%
    23:00 -3°C° 0 mm 0 mps 652 mmHg 94%
    Show more